Regional Weather Roundup
Issued by NWS Portland, ME

Home | Current Version | Previous Version | Text Only | Print | Product List | Glossary On
Versions: 1 2 3 4 5 6 7 8 9 10 11 12 13 14 15 16 17 18 19 20 21 22 23 24 25 26 27 28 29 30 31 32 33 34 35 36 37 38 39 40 41 42 43 44 45 46 47 48 49 50
000
ASUS41 KGYX 300910
RWRGYX
WEATHER ROUNDUP FOR MAINE AND NEW HAMPSHIRE
NATIONAL WEATHER SERVICE GRAY ME
500 AM EDT SAT JUL 30 2016

MEZ002-005-006-010-012-015-018-020-021-024-026-027-029-301000-
MAINE

CITY           SKY/WX    TMP DP  RH WIND       PRES   REMARKS
PORTLAND       CLEAR     65  58  78 CALM      29.95R
SANFORD          N/A     55  55 100 CALM      29.97R
BAR HARBOR     CLEAR     63  62  97 CALM      29.92R
WISCASSET      PTCLDY    62  59  90 CALM      29.96R
ROCKLAND       CLEAR     62  60  93 NW3       29.93R
FRYEBURG       CLEAR     56  55  97 CALM      29.98R
LEWISTONAUBURN CLEAR     60  57  89 N5        29.97R
AUGUSTA        CLEAR     63  57  81 NW8       29.96R
WATERVILLE     CLEAR     65  56  72 NW9       29.94R
BANGOR         PTCLDY    65  58  78 NW8       29.94R
GREENVILLE       N/A     58  53  84 N3        29.97R
MILLINOCKET    CLEAR     58  55  90 CALM      29.96R
HOULTON        CLEAR     52  52 100 CALM      29.93R
PRESQUE ISLE   FOG       54  54 100 CALM      29.96R VSB 1/4
FRENCHVILLE    CLEAR     54  50  86 NW8       29.95S
CARIBOU        CLOUDY    58  54  86 NW6       29.94R
$$

NHZ002-005-008-009-011-012-014-301000-
NEW HAMPSHIRE

CITY           SKY/WX    TMP DP  RH WIND       PRES   REMARKS
PORTSMOUTH     PTCLDY    65  62  88 NW6       29.95R
ROCHESTER      CLEAR     65  59  81 NW8       29.96R
NASHUA         CLEAR     65  61  87 NW6       29.98R
MANCHESTER     PTCLDY    68  59  73 NW5       29.96R
CONCORD        CLEAR     63  58  83 NW3       29.98R
LACONIA        CLEAR     63  56  78 VRB3      29.99R
PLYMOUTH       FAIR      61  56  84 W6        29.99S
BERLIN         FOG       49  47  93 CALM      30.04R VSB 1/4
WHITEFIELD     FOG       50  48  93 CALM      30.04R VSB 1/4
JAFFREY        CLOUDY    59  56  89 CALM      30.02R
KEENE          CLOUDY    61  61 100 CALM      30.01S FOG
LEBANON        CLEAR     57  54  89 NE3       30.02R
MT WASHINGTON  PTCLDY    43  41  93 NW23        N/A
$$

VTZ005-007-008-301000-
VERMONT

CITY           SKY/WX    TMP DP  RH WIND       PRES   REMARKS
ST JOHNSBURY     N/A     56  52  86 MISG      30.02R
MONTPELIER     FOG       53  52  96 CALM      30.08R VSB 1/4
BURLINGTON     FAIR      59  56  89 E3        30.03R
$$

MAZ007-012-024-CTZ003-RIZ002-NYZ038-NYZ072-301000-
SOUTHERN NEW ENGLAND AND NY

CITY           SKY/WX    TMP DP  RH WIND       PRES   REMARKS
BOSTON         PTCLDY    72  66  81 NW7       29.95R
WORCESTER      CLEAR     67  56  67 N6        30.00R
NANTUCKET      MOCLDY    70  68  93 N7        29.93R
PROVIDENCE     CLEAR     69  66  90 CALM      29.96R
HARTFORD       PTCLDY    67  62  84 N6        29.98R
ALBANY         PTCLDY    65  59  81 N6        30.00S
NEW YORK CITY  PTCLDY    77  70  79 NW3       29.93S
$$

ANZ081-ANZ082-ANZ150-NHZ014-MEZ023>029-301000-
COASTAL MARINE OBSERVATIONS

STATION/POSITION TIME  TEMP    WIND        PRES    WAVE
                       AIR SEA DIR/SP/G            HT/PER
                 (UTC) (F)     (DEG/KT/KT) (MB)    (FT/S)
MOUNT DESERT ROC 0900   59     290/  8/  9 1013.1R
MATINICUS ROCK   0900   59     290/  9/  9 1013.0R
ISLE OF SHOALS   0900   69     330/ 11/ 11 1014.1R
JEFFREYS LEDGE   0808      69                N/A     1/14
CASHES LEDGE BUO 0850   68 72  290/ 12/ 14 1013.2R   1/ 7
GEORGES BANK BUO 0850   66 67              1010.9R   3/ 6
$$

.............KEY..............
   WCI - WIND CHILL
   TC  - TEMPERATURE IN CELSIUS
   VSB - VISIBILITY IN MILES
   HX  - HEAT INDEX
   FAIR- INDICATES FEW OR NO CLOUDS BELOW 12,000 FT, WITH NO
         SIGNIFICANT WEATHER AND/OR OBSTRUCTIONS TO VISIBILITY.






USA.gov is the U.S. government's official web portal to all federal, state and local government web resources and services.